[[{"header":{"parameterUnit":"m.s-1","parameterCategory":1,"la1":30.2991,"la2":30.254,"lo1":-89.0895,"lo2":-89.0444,"dy":0.0017,"dx":0.0017,"nx":28,"ny":28,"refTime":"2025-06-10T03:00:00:Z","depth":0,"parameterNumber":2,"parameterNumberName":"U-component_of_WINDS"},"data":[0,0,0,0,0,0,0,0,0,0,0,0,0,0,0,0,0,0,0,0,0,0,0,0,0,0,0,0,0,0,0,0,0,0,0,0,0,0,0,0,0,0,0,0,0,0,0,0,0,0,0,0,0,0,0,0,0,0,1.7048,1.7048,0,1.7056,1.7056,1.7057,1.6994,1.6993,1.6991,1.6989,1.6998,1.7,1.7002,0,0,0,0,0,0,0,0,0,0,0,0,0,1.6978,1.6979,1.7048,1.7048,1.7048,1.7056,1.7056,1.7057,1.6995,1.6992,1.699,1.6988,1.6998,1.7,1.7002,0,0,0,0,0,0,0,0,0,0,0,0,0,1.6999,1.698,1.7048,1.7018,1.7015,1.7056,1.7056,1.7057,1.6995,1.6992,1.699,1.6987,1.6997,1.7,1.7003,1.7073,0,0,1.7011,1.7012,0,0,0,0,0,0,0,0,1.6998,1.7002,1.7022,1.702,1.7017,1.7022,1.7035,1.7062,1.6996,1.7003,1.6989,1.6986,1.7008,1.701,1.7017,1.7073,1.7073,1.7011,1.7013,1.7014,1.7015,0,0,0,0,0,0,0,1.6997,1.7001,1.7051,1.7023,1.702,1.7004,1.7005,1.704,1.702,1.7002,1.6997,1.6999,1.7006,1.7015,1.7017,1.7074,1.7011,1.7014,1.7016,1.7017,1.7187,1.719,0,0,0,0,0,0,1.6999,1.7001,1.7051,1.7051,1.7001,1.7008,1.7008,1.7023,1.702,1.7017,1.7002,1.6996,1.7011,1.7014,1.7017,1.7099,1.7014,1.7017,1.7019,1.7184,1.7188,1.7191,0,0,0,0,0,0,1.6998,1.7004,1.705,1.7025,1.7029,1.7012,1.7029,1.7024,1.7033,1.7019,1.7015,1.7014,1.7009,1.7013,1.7059,1.7098,1.7018,1.7021,1.7181,1.7185,1.7189,1.7263,0,0,0,0,0,0,1.6996,1.7004,1.7031,1.7026,1.7031,1.7092,1.7031,1.7026,1.7038,1.7031,1.703,1.7027,1.7008,1.7055,1.7062,1.7101,1.7023,1.7177,1.7183,1.7188,1.7257,1.7269,1.728,0,0,0,0,0,1.6994,1.7051,1.7032,1.7039,1.7064,1.7095,1.7098,1.7074,1.7041,1.7067,1.7059,1.7027,1.7093,1.7061,1.7068,1.7108,1.7175,1.7181,1.7187,1.7252,1.7267,1.7279,0,0,0,0,0,0,1.7061,1.705,1.7029,1.7086,1.7092,1.7084,1.7117,1.7091,1.7106,1.7099,1.7069,1.707,1.7121,1.7119,1.7083,1.7175,1.7128,1.7136,1.7175,1.7189,1.72,1.7199,1.7025,0,0,0,0,0,1.7083,1.7109,1.7098,1.7149,1.7153,1.7135,1.7147,1.7129,1.7133,1.7136,1.713,1.7136,1.7158,1.7173,1.7193,1.7256,1.7255,1.7287,1.7299,1.7308,1.7316,1.7349,1.7363,1.7212,1.7211,1.7211,0,0,1.7127,1.7124,1.7143,1.7163,1.7165,1.7193,1.7137,1.7169,1.7189,1.714,1.7183,1.718,1.7185,1.724,1.7264,1.724,1.7357,1.7316,1.7324,1.7326,1.7357,1.7371,1.7384,1.7216,1.7215,1.7214,0,0,1.7222,1.7223,1.7266,1.7269,1.7274,1.7261,1.7271,1.7268,1.7264,1.7306,1.727,1.7294,1.7333,1.7337,1.7345,1.7443,1.7414,1.745,1.7509,1.7542,1.7554,1.7565,1.76,1.7612,1.7457,1.7457,1.7458,0,1.7277,1.7318,1.7291,1.7326,1.7336,1.7293,1.7336,1.7341,1.7351,1.7359,1.7332,1.738,1.738,1.7435,1.7459,1.7467,1.7478,1.745,1.7555,1.7565,1.7574,1.7607,1.762,1.7462,1.7461,1.7461,1.746,0,1.7385,1.7414,1.7448,1.7459,1.7473,1.7512,1.7491,1.7508,1.7489,1.7479,1.7523,1.7522,1.7541,1.7552,1.7533,1.7606,1.7591,1.756,1.7512,1.7593,1.7624,1.7636,1.7468,1.7466,1.7465,1.7464,0,0,1.7522,1.7519,1.7532,1.7536,1.7538,1.756,1.7597,1.7615,1.763,1.7639,1.7669,1.7703,1.7674,1.7683,1.7664,1.7693,1.7771,1.7659,1.7658,1.768,1.785,1.7873,1.7888,1.7752,1.7754,1.7756,1.785,0,1.7615,1.7678,1.7656,1.772,1.7746,1.7706,1.7738,1.7743,1.7735,1.7756,1.7747,1.7772,1.7732,1.7737,1.7764,1.7756,1.7805,1.7749,1.778,1.7781,1.778,1.7904,1.7929,1.8017,1.7861,1.7863,1.7865,0,1.7732,1.7746,1.7813,1.781,1.782,1.7849,1.7864,1.7885,1.7889,1.7882,1.7892,1.7867,1.7903,1.7855,1.7904,1.7867,1.7878,1.7876,1.7879,1.7881,1.7828,1.7909,1.8045,1.8058,1.7883,1.7882,1.7881,0,1.7825,1.7861,1.7905,1.791,1.7908,1.793,1.793,1.7932,1.7944,1.7957,1.7965,1.7982,1.7992,1.8006,1.7986,1.7953,1.8039,1.7989,1.8033,1.8034,1.8053,1.8052,1.8192,1.8061,1.8061,1.806,1.806,0,1.7931,1.7974,1.7947,1.7974,1.8021,1.7995,1.8042,1.8037,1.8039,1.8065,1.8032,1.8057,1.803,1.8052,1.8037,1.8081,1.8085,1.808,1.8075,1.8083,1.8084,1.809,1.8083,1.8064,1.8063,1.8062,1.8062,0,1.8043,1.8027,1.8073,1.8067,1.8067,1.8102,1.8097,1.8122,1.8112,1.8145,1.8151,1.8136,1.8161,1.8143,1.8167,1.8157,1.8214,1.8201,1.8213,1.8209,1.8254,1.825,1.8403,1.8422,1.8279,1.828,1.8281,0,1.8112,1.8144,1.8142,1.8157,1.8159,1.8184,1.8196,1.8172,1.8186,1.8194,1.8219,1.8241,1.8257,1.8299,1.8289,1.8308,1.8295,1.8348,1.8298,1.8304,1.8296,1.8294,1.8297,1.8358,1.8359,1.8361,1.8362,0,1.8235,1.8226,1.8245,1.8262,1.8278,1.829,1.8299,1.8314,1.8289,1.8307,1.8332,1.8345,1.837,1.8393,1.8408,1.8408,1.8381,1.8378,1.8389,1.8397,1.8402,1.84,1.824,1.8374,1.8373,1.8372,1.8371,1.8371,1.8328,1.8354,1.8357,1.8379,1.8384,1.8394,1.8417,1.841,1.8431,1.8449,1.8434,1.8464,1.8468,1.8486,1.8489,1.8513,1.8491,1.8507,1.8511,1.8516,1.8522,1.8399,1.8515,1.8515,1.8515,1.8514,1.8514,0,1.8449,1.8449,1.847,1.8484,1.8502,1.8476,1.8485,1.8501,1.8528,1.8534,1.8551,1.858,1.8602,1.8595,1.8614,1.8634,1.8622,1.864,1.8638,1.8638,1.854,1.8529,1.8649,1.8649,1.8649,1.8649,1.8649,1.8649,1.8514,1.8557,1.8548,1.8594,1.8593,1.8622,1.863,1.8639,1.8643,1.8677,1.8695,1.869,1.8691,1.871,1.8729,1.8726,1.8735,1.8757,1.875,1.8659,1.8645,1.8633,1.8621,1.8759,1.8759,1.8846,1.8847,1.8847]},{"header":{"parameterUnit":"m.s-1","parameterCategory":1,"la1":30.2991,"la2":30.254,"lo1":-89.0895,"lo2":-89.0444,"dy":0.0017,"dx":0.0017,"nx":28,"ny":28,"refTime":"2025-06-10T03:00:00:Z","depth":0,"parameterNumber":3,"parameterNumberName":"V-component_of_WINDS"},"data":[0,0,0,0,0,0,0,0,0,0,0,0,0,0,0,0,0,0,0,0,0,0,0,0,0,0,0,0,0,0,0,0,0,0,0,0,0,0,0,0,0,0,0,0,0,0,0,0,0,0,0,0,0,0,0,0,0,0,1.5823,1.5824,0,1.5969,1.597,1.5972,1.6047,1.6047,1.6047,1.6047,1.6201,1.6205,1.6209,0,0,0,0,0,0,0,0,0,0,0,0,0,1.5613,1.5617,1.5823,1.5824,1.5826,1.5968,1.597,1.5972,1.6047,1.6047,1.6047,1.6047,1.62,1.6205,1.6209,0,0,0,0,0,0,0,0,0,0,0,0,0,1.5726,1.5618,1.5822,1.588,1.5887,1.5968,1.597,1.5973,1.6047,1.6047,1.6047,1.6047,1.6198,1.6204,1.621,1.6246,0,0,1.6229,1.6231,0,0,0,0,0,0,0,0,1.572,1.5734,1.587,1.5877,1.5884,1.599,1.5953,1.6065,1.6047,1.5986,1.6047,1.6047,1.6131,1.6143,1.617,1.6253,1.6259,1.6229,1.6233,1.6235,1.6237,0,0,0,0,0,0,0,1.5712,1.5728,1.5881,1.5872,1.5881,1.5901,1.5917,1.5975,1.6057,1.5992,1.5997,1.6013,1.6135,1.6164,1.6174,1.6262,1.6229,1.6234,1.6238,1.6241,1.6382,1.6382,0,0,0,0,0,0,1.5694,1.5721,1.5876,1.5885,1.58,1.5904,1.5923,1.5956,1.6056,1.6071,1.6013,1.6016,1.6153,1.6167,1.618,1.6229,1.6235,1.6241,1.6245,1.6382,1.6382,1.6382,0,0,0,0,0,0,1.5689,1.5707,1.587,1.5805,1.5827,1.5908,1.5945,1.5959,1.5988,1.6072,1.6088,1.6027,1.6154,1.6171,1.6229,1.6235,1.6244,1.6249,1.6382,1.6382,1.6382,1.6326,0,0,0,0,0,0,1.5683,1.5705,1.5718,1.5804,1.583,1.5915,1.5945,1.5961,1.5997,1.6003,1.609,1.6104,1.6156,1.6219,1.6235,1.6243,1.6254,1.6382,1.6382,1.6382,1.6327,1.6324,1.6321,0,0,0,0,0,1.5675,1.5697,1.5718,1.5737,1.5848,1.5915,1.593,1.5987,1.5997,1.6012,1.6067,1.6102,1.6231,1.6224,1.6242,1.6253,1.6382,1.6382,1.6382,1.6329,1.6325,1.6321,0,0,0,0,0,0,1.5611,1.5709,1.5734,1.5784,1.584,1.5927,1.5948,1.5981,1.6036,1.6039,1.6109,1.6128,1.6179,1.6222,1.6212,1.6293,1.631,1.6314,1.6263,1.626,1.6257,1.6246,1.6259,0,0,0,0,0,1.5602,1.5647,1.5731,1.5768,1.5794,1.5866,1.5897,1.5936,1.5998,1.6023,1.6081,1.6141,1.6196,1.623,1.6285,1.6334,1.6355,1.635,1.6347,1.6344,1.6347,1.6377,1.6376,1.6383,1.6383,1.6383,0,0,1.5586,1.5645,1.5669,1.5756,1.5805,1.5851,1.5886,1.5933,1.5968,1.6031,1.6088,1.6133,1.6205,1.6258,1.6284,1.6295,1.6349,1.6344,1.6341,1.6346,1.6377,1.6376,1.6375,1.6384,1.6384,1.6384,0,0,1.5579,1.5628,1.5664,1.5711,1.5783,1.583,1.5839,1.5921,1.5953,1.6011,1.6059,1.6103,1.6195,1.6244,1.6281,1.6293,1.6327,1.6309,1.6292,1.6321,1.632,1.632,1.6325,1.6326,1.6311,1.6311,1.6311,0,1.555,1.562,1.5679,1.5723,1.576,1.5817,1.5855,1.5898,1.5985,1.601,1.6021,1.6137,1.619,1.6256,1.6258,1.6286,1.6299,1.63,1.6315,1.6316,1.6316,1.6322,1.6324,1.6309,1.6309,1.6309,1.6309,0,1.5581,1.5628,1.5649,1.5729,1.5769,1.581,1.5876,1.591,1.5945,1.5992,1.6051,1.6116,1.6185,1.6203,1.6239,1.6275,1.6279,1.6301,1.632,1.6312,1.6319,1.6321,1.6305,1.6306,1.6306,1.6307,0,0,1.5539,1.565,1.5657,1.5694,1.5777,1.5816,1.586,1.5926,1.5954,1.6012,1.6052,1.6128,1.6149,1.6191,1.6233,1.6258,1.6264,1.6278,1.628,1.6273,1.6308,1.6291,1.6293,1.6287,1.6288,1.6288,1.6303,0,1.5544,1.5623,1.5677,1.5736,1.5782,1.5837,1.5875,1.5931,1.5976,1.6023,1.6073,1.6126,1.615,1.6176,1.6202,1.6257,1.6272,1.6257,1.6326,1.6328,1.6307,1.6296,1.6278,1.6289,1.6305,1.6306,1.6306,0,1.5561,1.5616,1.5678,1.5757,1.5778,1.5811,1.5877,1.592,1.5985,1.6016,1.6063,1.6105,1.6156,1.6169,1.6241,1.6229,1.6261,1.6292,1.6294,1.6304,1.6317,1.6306,1.6293,1.6295,1.6311,1.631,1.631,0,1.5524,1.5614,1.5663,1.5693,1.5786,1.5808,1.5848,1.5914,1.595,1.6007,1.6032,1.6095,1.613,1.6179,1.6238,1.6242,1.6304,1.6322,1.6332,1.6331,1.6343,1.6342,1.6336,1.6362,1.6362,1.6362,1.6362,0,1.5525,1.5562,1.5648,1.5678,1.5721,1.5784,1.5825,1.587,1.5928,1.5969,1.6021,1.6059,1.6134,1.6182,1.6229,1.6282,1.6297,1.6325,1.6337,1.632,1.6317,1.6343,1.6344,1.6363,1.6363,1.6362,1.6362,0,1.5492,1.5551,1.5608,1.569,1.5712,1.574,1.5812,1.5845,1.5892,1.5944,1.596,1.6035,1.6094,1.6157,1.6239,1.627,1.6321,1.6337,1.6298,1.6305,1.6312,1.631,1.6323,1.6328,1.6349,1.6349,1.6349,0,1.5489,1.5518,1.5603,1.5633,1.5671,1.572,1.5757,1.582,1.5857,1.5933,1.5957,1.6019,1.6073,1.6165,1.6228,1.6291,1.631,1.631,1.632,1.6303,1.6311,1.6309,1.6312,1.6307,1.6307,1.6306,1.6306,0,1.5477,1.5504,1.5555,1.5615,1.5657,1.5708,1.5762,1.5784,1.5858,1.5897,1.5957,1.5998,1.608,1.6142,1.6212,1.6256,1.6294,1.6302,1.6308,1.6292,1.6268,1.6281,1.629,1.6302,1.6302,1.6302,1.6303,1.6303,1.5459,1.5488,1.5552,1.5606,1.5653,1.5701,1.5736,1.5787,1.5837,1.5908,1.5943,1.6003,1.6069,1.6166,1.6209,1.6258,1.627,1.6278,1.628,1.6282,1.6278,1.6259,1.6271,1.6272,1.6272,1.6272,1.6272,0,1.5451,1.5495,1.5544,1.5616,1.5659,1.5688,1.5749,1.5784,1.5835,1.5893,1.5944,1.6013,1.6074,1.6141,1.6207,1.6233,1.6252,1.6248,1.6247,1.6257,1.6263,1.6252,1.6232,1.6232,1.6232,1.6232,1.6232,1.6232,1.5452,1.5501,1.5536,1.561,1.5655,1.5712,1.5745,1.579,1.5836,1.5911,1.5961,1.6004,1.6066,1.6136,1.6193,1.6212,1.6234,1.6225,1.6249,1.6253,1.6256,1.626,1.6249,1.6229,1.6229,1.6239,1.6239,1.6239]}]]